CENTAURI-2 (43722 NORAD) Tracking and Keplerian Element Data

This shows tracking and keplerian element data for the satellite.

Feedback or suggestion? Click here.




ElementValue
Catalog43722
NameCENTAURI-2
Epoch Orbit2714
Epoch Day146.18244941
Epoch Year2019
RAAN216.1218
Inclination97.4606
Eccentricity0.0019602
Argument of Perigee57.0332
Mean Anonmoly303.2787
Mean Motion15.26429863
Decay Rate1.235E-05
L11 43722U 18096D 19146.18244941 .00001235 00000-0 50061-4 0 9993
L22 43722 97.4606 216.1218 0019602 57.0332 303.2787 15.26429863 27141

Live tracking and technical data element details for CENTAURI-2 (NORAD 43722). CENTAURI-2 can be tracked NOW for your location showing map with azimuth and elevation plus other details from your city location.

Track the satellite on the map from your city or location and see movement details for azimuth, elevation, latitude, longitude, range, height, and movement on the map or in text.







IsCatalogInMostPopularTable: catalog: 43722, numindb: 54
Update: records affected: 1



GetName: 43722 CENTAURI-2

Hit Count: updated at: Mon, 27 May 2019 03:19:05 GMT